Wind_Speed
37 34 31 32 26 24 20 17 4 15 35 13 12 16 6 7 2 23 8 4 4 4 3 3 4 4 1 13 3 4 2 3 3 7 1 3 3 4 4 4 4 4 5 7
40 38 34 33 31 30 25 9 14 21 44 13 12 6 7 6 3 7 4 5 7 8 4 3 4 2 5 10 2 5 5 1 2 7 5 3 4 3 4 1 2 7 7 9
41 40 38 34 37 31 30 11 3 11 27 24 15 13 8 6 15 20 8 5 6 4 2 3 4 3 3 4 7 6 7 4 6 6 6 4 3 4 1 3 3 15 12 34
44 42 41 38 38 35 34 15 8 15 9 17 10 13 10 18 9 12 3 5 13 8 4 4 3 3 3 9 5 3 4 3 1 3 4 3 6 4 10 9 16 13 28 23
45 46 44 42 39 38 42 17 5 8 4 21 21 15 19 16 14 9 8 16 9 11 15 9 3 2 6 5 3 2 3 2 2 4 8 10 7 9 11 15 21 22 26 24
47 46 46 45 44 48 32 36 20 8 8 11 16 22 18 14 15 16 25 10 13 19 17 17 18 11 7 4 5 6 5 6 4 10 4 5 8 14 18 9 11 10 12 9
48 48 48 49 49 54 30 34 20 7 4 10 17 12 24 16 15 17 5 24 16 15 13 5 5 5 1 6 6 9 7 5 3 5 2 19 5 2 4 9 2 5 6 6
50 50 51 52 53 52 49 25 35 9 2 8 9 9 7 21 24 16 15 25 32 17 12 2 3 1 3 5 2 5 4 5 2 5 10 12 9 2 1 5 2 4 2 2
52 51 53 53 53 52 54 28 31 19 3 9 7 7 16 6 5 3 12 21 16 19 3 3 6 6 4 5 3 5 3 3 4 3 6 7 3 3 2 1 3 1 3 4
53 51 53 54 54 52 52 50 28 32 7 3 8 4 5 12 11 2 5 8 9 17 3 6 7 9 5 6 7 6 3 1 5 6 6 5 0 3 5 2 1 3 4 4
54 53 54 54 54 51 51 50 43 30 15 11 2 5 3 4 10 5 6 5 4 2 6 4 3 4 7 5 5 8 8 8 4 3 4 7 4 2 3 3 4 6 9 12
53 54 53 54 54 51 51 41 50 40 20 6 19 13 7 8 10 3 21 4 6 12 4 2 2 3 2 3 5 2 4 6 5 7 4 3 8 10 8 12 8 7 8 10
52 53 53 54 52 51 53 41 42 34 26 14 14 12 9 6 10 14 8 10 10 10 7 7 2 4 3 4 4 3 1 4 3 2 4 3 2 5 7 9 8 11 13 15
51 52 52 51 51 50 51 43 42 40 17 6 6 17 21 19 20 19 21 14 11 10 9 3 3 2 6 2 0 3 3 7 5 2 2 4 2 5 6 12 12 13 12 15
51 51 49 50 49 48 50 39 40 40 30 9 7 7 4 8 12 13 16 25 16 10 5 2 2 4 4 2 1 2 8 5 5 4 11 8 12 17 12 13 15 13 12 14
49 47 47 47 47 49 46 17 34 37 31 8 2 5 7 7 9 13 18 22 17 7 4 4 4 5 5 3 3 7 17 17 16 8 15 23 20 17 14 14 13 14 15 15
47 47 45 44 47 51 38 11 18 42 32 7 3 1 6 14 15 9 8 10 5 3 3 3 3 3 6 2 4 9 15 20 20 23 25 18 9 11 12 13 13 13 13 15
46 46 44 45 45 41 32 13 13 42 27 9 3 2 4 11 4 3 2 2 4 4 3 3 3 5 1 3 8 20 22 24 19 16 13 17 14 9 11 11 12 14 16 16
48 47 45 44 47 26 32 17 31 39 12 12 6 7 5 13 5 5 3 1 2 2 2 1 5 2 4 8 16 26 28 13 24 19 16 13 9 9 9 10 13 12 10 12
52 53 28 7 23 30 33 23 15 14 14 7 3 10 4 12 6 3 5 2 2 1 2 9 3 3 4 12 24 26 22 24 21 18 11 8 9 8 7 7 6 7 9 12
38 10 6 32 35 25 13 6 8 7 5 13 9 8 7 9 4 3 4 3 2 3 2 4 2 3 6 23 30 26 22 17 12 10 10 8 7 6 5 4 6 8 8 13
23 21 36 30 10 5 6 6 4 4 7 10 9 12 11 9 7 4 4 2 2 2 7 3 3 4 28 30 29 24 19 14 14 9 10 9 8 7 6 6 8 5 8 14
42 19 7 7 4 4 7 9 4 5 6 11 17 10 9 7 5 4 3 4 3 9 1 4 3 22 30 36 31 25 17 15 14 13 10 10 9 9 7 6 5 4 10 14
6 5 6 4 4 5 5 5 5 10 21 29 30 10 5 6 3 3 4 3 4 3 4 6 6 29 33 36 30 26 21 14 15 15 11 10 9 9 6 4 4 5 10 12
4 6 7 8 5 6 4 10 16 19 40 37 16 9 7 3 3 2 4 5 5 7 5 5 24 35 39 36 30 24 21 19 20 15 10 9 9 8 6 5 3 7 11 14
4 5 2 3 2 1 5 15 25 42 37 26 10 4 4 3 4 6 7 8 7 4 3 25 34 37 38 34 27 22 21 21 19 12 10 9 9 10 7 3 4 9 13 14
1 2 6 6 8 8 16 26 35 38 27 3 4 6 7 5 4 6 5 5 4 14 25 32 39 42 37 30 27 24 23 21 15 13 12 11 10 9 5 0 6 10 12 13
Wind_Direction
231 229 224 214 212 210 206 199 207 190 182 187 205 217 168 207 179 250 256 282 257 237 300 282 237 235 189 349 162 121 289 128 226 244 314 110 130 158 139 122 263 226 251 272
227 228 224 212 207 207 187 196 204 180 182 199 211 191 205 229 226 213 222 233 199 212 233 281 207 221 19 7 38 169 161 66 30 344 352 41 122 141 106 172 122 222 268 274
225 222 222 212 205 204 199 182 172 191 198 217 196 196 202 212 219 248 260 318 346 7 305 232 269 131 359 41 44 34 91 177 178 204 216 150 181 179 153 170 254 279 258 279
220 221 218 212 206 200 192 208 218 186 191 207 176 186 192 210 211 216 241 269 234 258 295 318 238 85 31 16 256 54 106 212 250 271 233 222 205 179 241 233 250 260 275 281
219 218 215 213 205 195 198 204 192 196 132 172 198 206 217 214 202 193 210 239 269 239 231 209 288 185 172 168 311 289 73 265 80 270 263 238 245 233 248 243 257 267 270 272
219 216 215 213 206 196 203 210 213 204 187 179 191 216 211 205 201 219 220 214 225 245 256 257 248 222 182 180 170 192 148 145 149 273 223 323 262 234 237 237 231 239 260 284
215 215 214 215 208 203 201 206 203 212 240 190 209 198 210 213 197 219 205 224 236 254 273 207 118 123 156 234 193 161 152 156 177 279 56 268 237 141 217 232 200 354 19 49
214 214 212 214 212 205 201 206 201 222 234 208 225 202 176 210 223 224 227 253 259 269 177 65 251 214 198 176 359 205 202 143 214 251 256 295 288 317 279 203 197 359 94 48
214 211 211 212 213 207 206 198 207 214 157 231 185 183 209 202 201 208 238 232 233 189 142 126 209 220 187 210 166 28 53 52 189 149 268 272 164 138 19 329 250 62 84 61
211 211 211 210 210 208 206 203 199 212 233 338 189 171 187 175 181 174 142 162 180 194 159 208 225 238 183 221 189 177 133 118 214 227 257 278 205 112 52 132 240 343 10 342
208 209 211 209 207 206 203 205 201 205 215 231 171 7 248 200 199 149 150 132 205 145 195 196 201 208 205 189 182 170 163 174 193 196 234 276 130 38 164 203 225 247 246 260
205 205 207 207 205 203 200 200 206 210 219 235 249 264 312 287 245 210 171 190 153 193 161 196 142 192 208 155 235 74 190 201 180 194 207 95 52 37 305 264 258 312 332 332
202 202 203 203 202 199 200 194 194 198 205 229 250 251 236 275 273 245 204 224 220 211 210 151 147 205 142 181 216 136 148 153 160 120 173 234 87 248 89 68 36 20 27 43
199 198 199 200 197 196 197 189 195 195 184 217 215 239 248 247 254 260 240 234 223 220 189 137 155 168 186 217 249 175 170 134 145 186 252 225 135 85 48 67 67 57 45 32
194 191 192 193 194 191 194 188 197 198 185 175 159 186 251 241 244 247 237 232 237 187 166 139 165 139 121 76 49 236 182 161 172 204 195 158 87 94 97 80 63 46 36 27
182 187 188 188 189 187 180 169 198 197 196 211 118 202 192 213 194 199 195 202 202 196 161 119 151 164 144 151 207 244 221 210 186 155 122 122 113 86 69 69 52 41 37 35
183 187 185 184 185 186 170 176 185 186 185 180 105 279 178 156 151 152 133 145 123 125 112 107 142 149 142 175 183 157 118 125 130 141 138 100 85 85 65 51 43 30 27 28
182 178 178 181 183 179 175 169 158 177 175 191 135 140 162 173 124 102 119 108 101 72 80 109 126 130 140 230 222 149 127 123 120 122 120 116 112 88 46 30 23 22 22 15
174 172 175 178 173 171 179 161 168 171 175 162 164 154 186 161 121 137 115 116 82 128 117 207 164 160 217 222 176 154 151 150 136 122 112 113 89 60 40 30 32 28 28 20
168 165 153 137 153 163 168 141 158 170 204 179 156 142 143 150 147 139 129 130 145 133 212 160 212 234 279 185 156 158 151 146 146 127 105 93 79 74 61 50 42 38 40 18
139 127 97 131 143 147 168 181 186 158 176 169 160 162 135 166 134 132 186 172 176 131 222 193 244 231 146 140 142 144 144 146 137 129 113 97 97 114 141 102 50 56 33 14
158 136 131 128 141 153 168 180 168 188 195 159 142 146 127 130 130 115 173 138 193 131 166 167 246 175 149 145 145 144 146 141 126 115 116 113 128 139 124 81 60 55 17 8
119 127 148 154 149 157 191 175 188 162 154 154 151 135 130 123 114 112 145 180 135 141 154 227 229 144 148 150 149 142 141 139 134 129 128 132 123 116 93 90 64 56 9 1
126 122 116 183 188 218 195 171 159 151 145 148 146 118 124 125 123 162 133 146 122 221 225 224 157 156 151 153 154 150 149 152 146 149 141 126 119 121 118 97 80 21 358 355
101 134 175 203 197 217 213 184 141 146 146 146 121 71 90 93 110 188 133 153 212 220 225 165 160 155 154 155 157 156 156 159 160 156 144 134 133 146 145 117 50 351 342 343
137 173 144 227 109 148 154 150 137 146 142 124 92 106 122 145 155 173 200 177 216 214 171 148 150 149 157 157 158 161 162 162 160 156 152 151 157 154 151 157 339 341 342 339
128 252 208 192 138 143 148 150 150 152 145 129 142 138 184 132 186 191 182 205 177 138 139 149 155 160 159 159 159 160 163 165 163 162 170 169 160 169 183 301 356 342 338 333
Height
1441 1448 1456 1463 1470 1477 1482 1484 1484 1483 1491 1498 1493 1488 1495 1495 1496 1498 1500 1500 1497 1496 1492 1491 1494 1492 1489 1489 1486 1489 1497 1506 1513 1506 1498 1498 1501 1505 1511 1534 1531 1530 1520 1493
1432 1441 1449 1456 1464 1469 1476 1478 1480 1480 1481 1479 1481 1489 1491 1494 1494 1496 1496 1495 1494 1493 1494 1497 1489 1489 1490 1490 1492 1493 1491 1509 1527 1513 1505 1500 1504 1505 1507 1513 1523 1521 1518 1492
1424 1432 1441 1449 1456 1464 1473 1476 1478 1477 1474 1473 1478 1486 1488 1491 1491 1492 1494 1494 1491 1491 1493 1490 1489 1491 1494 1491 1492 1493 1490 1506 1506 1516 1506 1506 1510 1508 1510 1514 1523 1505 1508 1469
1414 1423 1432 1441 1449 1458 1468 1466 1461 1458 1461 1468 1475 1480 1479 1482 1489 1493 1491 1493 1493 1495 1501 1494 1491 1492 1496 1495 1499 1493 1496 1512 1505 1503 1502 1504 1506 1508 1510 1513 1505 1506 1479 1482
1404 1414 1422 1432 1442 1453 1457 1453 1453 1452 1454 1461 1471 1470 1464 1473 1486 1487 1486 1487 1489 1489 1488 1491 1490 1491 1493 1495 1503 1497 1496 1510 1509 1510 1504 1502 1503 1500 1498 1499 1492 1488 1478 1476
1394 1404 1414 1422 1431 1441 1439 1447 1447 1448 1447 1455 1461 1449 1461 1467 1476 1477 1479 1483 1487 1485 1484 1485 1484 1484 1487 1488 1493 1501 1503 1507 1512 1495 1497 1499 1495 1490 1484 1477 1476 1475 1477 1467
1384 1395 1404 1412 1420 1426 1434 1439 1446 1446 1447 1446 1443 1451 1458 1463 1467 1473 1474 1478 1480 1481 1483 1483 1482 1484 1486 1490 1485 1489 1500 1504 1507 1495 1498 1490 1472 1467 1468 1470 1469 1473 1468 1468
1374 1384 1394 1403 1411 1420 1428 1436 1442 1442 1446 1444 1446 1449 1454 1462 1466 1466 1470 1474 1474 1479 1482 1487 1490 1488 1487 1489 1493 1490 1488 1492 1497 1490 1488 1473 1467 1465 1468 1470 1471 1475 1474 1472
1364 1375 1384 1393 1403 1414 1423 1431 1437 1443 1441 1439 1444 1448 1450 1458 1461 1464 1463 1469 1471 1475 1479 1484 1482 1481 1480 1480 1488 1490 1489 1488 1488 1496 1486 1476 1468 1466 1468 1467 1476 1475 1472 1472
1354 1364 1375 1384 1395 1407 1416 1425 1432 1441 1440 1439 1440 1443 1446 1448 1452 1458 1461 1463 1470 1472 1474 1478 1474 1468 1470 1473 1478 1488 1490 1492 1486 1483 1479 1471 1464 1466 1467 1481 1476 1470 1470 1469
1344 1355 1365 1376 1386 1399 1407 1416 1426 1433 1436 1438 1439 1441 1444 1444 1444 1452 1458 1464 1464 1470 1471 1472 1468 1468 1465 1465 1461 1468 1474 1483 1487 1484 1479 1472 1466 1468 1474 1472 1469 1469 1468 1467
1335 1346 1357 1369 1380 1393 1402 1411 1419 1429 1436 1436 1437 1441 1441 1443 1446 1449 1450 1450 1451 1452 1457 1462 1461 1465 1464 1460 1455 1457 1464 1464 1467 1472 1466 1465 1466 1467 1469 1467 1466 1467 1467 1466
1327 1339 1350 1362 1374 1386 1394 1403 1414 1424 1432 1437 1439 1439 1441 1443 1444 1446 1449 1447 1448 1448 1448 1449 1455 1455 1456 1457 1457 1456 1458 1459 1462 1465 1464 1466 1467 1468 1466 1465 1465 1465 1464 1462
1320 1332 1345 1356 1368 1381 1389 1395 1407 1419 1429 1434 1434 1434 1437 1438 1441 1443 1444 1445 1445 1445 1446 1446 1448 1450 1452 1454 1452 1451 1455 1458 1462 1466 1466 1465 1466 1465 1464 1462 1461 1461 1461 1461
1315 1327 1339 1352 1364 1376 1385 1396 1406 1414 1424 1425 1430 1432 1433 1433 1435 1438 1439 1442 1443 1442 1443 1442 1446 1445 1450 1454 1456 1455 1450 1453 1458 1460 1455 1459 1465 1463 1461 1460 1461 1461 1461 1460
1312 1325 1338 1349 1361 1372 1382 1395 1405 1409 1416 1422 1430 1430 1429 1430 1432 1435 1436 1436 1438 1439 1439 1439 1442 1443 1446 1451 1452 1445 1443 1444 1447 1450 1453 1454 1460 1460 1461 1460 1461 1461 1461 1461
1312 1324 1336 1349 1359 1367 1375 1382 1386 1401 1412 1418 1427 1427 1428 1429 1431 1434 1435 1433 1435 1437 1438 1440 1443 1442 1444 1446 1446 1443 1442 1442 1445 1448 1450 1455 1457 1460 1462 1461 1461 1460 1461 1461
1312 1324 1338 1350 1360 1370 1379 1383 1387 1399 1410 1416 1420 1426 1429 1428 1428 1432 1434 1434 1434 1436 1438 1440 1441 1443 1444 1443 1437 1439 1442 1442 1447 1449 1450 1452 1457 1460 1459 1459 1459 1459 1459 1460
1313 1327 1340 1351 1357 1364 1374 1383 1390 1396 1404 1406 1412 1415 1421 1424 1427 1431 1434 1435 1435 1439 1437 1440 1442 1441 1439 1432 1430 1434 1438 1439 1446 1448 1451 1454 1455 1456 1457 1458 1458 1460 1461 1460
1314 1327 1333 1339 1347 1359 1374 1384 1388 1394 1396 1398 1401 1405 1412 1418 1425 1430 1433 1434 1434 1434 1438 1440 1438 1434 1427 1424 1427 1431 1436 1438 1443 1446 1450 1452 1454 1456 1457 1459 1461 1459 1459 1458
1301 1315 1328 1338 1353 1364 1374 1376 1377 1378 1386 1387 1394 1398 1402 1412 1417 1423 1428 1431 1430 1428 1437 1437 1433 1425 1424 1426 1426 1433 1436 1440 1442 1444 1448 1451 1453 1456 1459 1460 1457 1456 1457 1456
1306 1313 1330 1343 1353 1358 1363 1365 1366 1367 1368 1373 1379 1391 1397 1405 1410 1417 1425 1423 1427 1424 1431 1434 1423 1410 1416 1423 1426 1431 1435 1437 1440 1444 1447 1451 1453 1455 1457 1456 1454 1455 1455 1454
1313 1326 1331 1335 1341 1344 1345 1346 1351 1355 1356 1364 1370 1384 1392 1402 1406 1414 1418 1420 1419 1424 1429 1419 1405 1408 1415 1419 1424 1430 1434 1436 1440 1444 1449 1451 1454 1453 1454 1454 1454 1454 1453 1453
1311 1315 1328 1333 1339 1335 1331 1331 1335 1340 1347 1357 1364 1372 1383 1392 1402 1408 1410 1413 1418 1424 1418 1398 1402 1406 1412 1417 1422 1426 1431 1436 1440 1445 1448 1449 1451 1452 1453 1454 1454 1453 1452 1450
1312 1318 1323 1322 1317 1317 1316 1320 1328 1330 1339 1350 1361 1372 1377 1389 1399 1403 1405 1412 1410 1398 1386 1389 1394 1401 1407 1413 1420 1425 1429 1435 1440 1443 1444 1446 1448 1450 1452 1452 1452 1451 1449 1446
1311 1314 1313 1312 1314 1316 1318 1321 1326 1330 1338 1348 1357 1369 1378 1385 1388 1391 1392 1392 1384 1378 1380 1384 1393 1400 1407 1414 1419 1424 1430 1433 1437 1439 1442 1445 1447 1449 1450 1450 1449 1448 1446 1444
1307 1307 1309 1310 1309 1311 1315 1320 1325 1330 1333 1342 1350 1360 1366 1373 1374 1374 1373 1372 1370 1372 1379 1386 1391 1397 1405 1413 1418 1424 1429 1433 1435 1437 1441 1444 1446 1448 1448 1447 1446 1445 1443 1442